Weather History for KRKR - April, 2014

Change the Weather History Date:

Saturday, April 19, 2014

  Actual Average (KFSM) Record (KFSM)
Temperature  
Mean Temperature 62 °F 63 °F  
Max Temperature 79 °F 75 °F 95 °F (1987)
Min Temperature 44 °F 51 °F 33 °F (1953)
Degree Days  
Heating Degree Days 4 4  
Month to date heating degree days 120  
Since 1 July heating degree days 3179  
Cooling Degree Days 0 2  
Month to date cooling degree days 28  
Year to date cooling degree days 40  
Growing Degree Days 12 (Base 50)    
Moisture  
Dew Point 47 °F    
Average Humidity 63    
Maximum Humidity 95    
Minimum Humidity 27    
Precipitation  
Precipitation 0.00 in 0.14 in 2.00 in (1986)
Month to date precipitation 2.57  
Year to date precipitation 11.99  
Sea Level Pressure  
Sea Level Pressure 30.15 in    
Wind  
Wind Speed 1 mph (SSW)    
Max Wind Speed 9 mph    
Max Gust Speed -    
Visibility 9 miles    
Events      
T = Trace of Precipitation, MM = Missing Value Source: NWS Daily Summary

Daily Weather History Graph

Daily Weather History Graph

Search for Another Location

Airport or City:

Trip Planner

Search our weather history database for the weather conditions in past years. The results will help you decide how hot, cold, wet, or windy it might be!

Date:

Astronomy

Apr. 19, 2014 Rise Set
Actual Time 6:41 AM CDT 7:54 PM CDT
Civil Twilight 6:15 AM CDT 8:20 PM CDT
Nautical Twilight 5:43 AM CDT 8:52 PM CDT
Astronomical Twilight 5:11 AM CDT 9:24 PM CDT
Moon No Moon Rise 10:05 AM CDT (4/19)
Length of Visible Light 14h 05m
Length of Day
13h 12m
Waning Gibbous, 78% of the Moon is Illuminated
Apr 19
Waning Gibbous
Apr 22
Last Quarter
Apr 29
New
May 6
First Quarter
May 14
Full

Hourly Weather History & Observations

Time (CDT) Temp. Dew Point Humidity Pressure Visibility Wind Dir Wind Speed Gust Speed Precip Events Conditions
12:15 AM 54.0 °F 45.5 °F 73% 30.17 in 10.0 mi North - - N/A   Clear
12:35 AM 52.9 °F 47.3 °F 81% 30.17 in 10.0 mi Calm Calm - N/A   Clear
12:55 AM 51.1 °F 46.9 °F 86% 30.17 in 10.0 mi North - - N/A   Clear
1:15 AM 50.5 °F 46.6 °F 86% 30.18 in 10.0 mi Calm Calm - N/A   Clear
1:35 AM 49.1 °F 46.0 °F 89% 30.17 in 10.0 mi North - - N/A   Clear
1:55 AM 50.2 °F 47.3 °F 90% 30.17 in 10.0 mi Calm Calm - N/A   Clear
2:15 AM 50.9 °F 46.9 °F 86% 30.17 in 10.0 mi Calm Calm - N/A   Clear
2:35 AM 49.5 °F 46.6 °F 90% 30.17 in 10.0 mi Calm Calm - N/A   Clear
2:55 AM 48.7 °F 46.8 °F 93% 30.17 in 10.0 mi Calm Calm - N/A   Clear
3:15 AM 47.8 °F 46.0 °F 93% 30.16 in 7.0 mi Calm Calm - N/A   Clear
3:35 AM 48.6 °F 46.0 °F 91% 30.16 in 7.0 mi North - - N/A   Clear
3:55 AM 47.3 °F 45.0 °F 92% 30.16 in 10.0 mi North - - N/A   Clear
4:15 AM 48.7 °F 46.2 °F 91% 30.16 in 7.0 mi Calm Calm - N/A   Clear
4:35 AM 46.4 °F 44.6 °F 93% 30.16 in 5.0 mi Calm Calm - N/A   Clear
4:55 AM 46.8 °F 44.8 °F 93% 30.17 in 7.0 mi Calm Calm - N/A   Clear
5:15 AM 46.9 °F 44.8 °F 92% 30.18 in 5.0 mi Calm Calm - N/A   Clear
5:35 AM 46.6 °F 44.1 °F 91% 30.18 in 10.0 mi North - - N/A   Clear
5:55 AM 45.7 °F 43.9 °F 93% 30.18 in 7.0 mi North - - N/A   Clear
6:15 AM 45.3 °F 43.7 °F 94% 30.18 in 1.8 mi North - - N/A   Mist
6:35 AM 45.5 °F 43.9 °F 94% 30.19 in 5.0 mi North - - N/A   Clear
6:55 AM 44.8 °F 43.5 °F 95% 30.19 in 1.0 mi Calm Calm - N/A   Mist
7:15 AM 46.4 °F 44.6 °F 93% 30.19 in 5.0 mi Calm Calm - N/A   Clear
7:35 AM 46.8 °F 44.6 °F 92% 30.20 in 7.0 mi North - - N/A   Clear
7:55 AM 48.2 °F 46.2 °F 93% 30.21 in 7.0 mi Calm Calm - N/A   Clear
8:15 AM 50.5 °F 47.8 °F 90% 30.21 in 7.0 mi North - - N/A   Clear
8:35 AM 54.0 °F 48.6 °F 82% 30.21 in 10.0 mi Calm Calm - N/A   Clear
8:55 AM 55.9 °F 50.0 °F 80% 30.22 in 10.0 mi Calm Calm - N/A   Clear
9:15 AM 58.5 °F 48.7 °F 70% 30.22 in 10.0 mi Calm Calm - N/A   Clear
9:35 AM 61.3 °F 50.0 °F 66% 30.22 in 10.0 mi North - - N/A   Clear
9:55 AM 63.1 °F 48.2 °F 58% 30.22 in 10.0 mi Calm Calm - N/A   Clear
10:15 AM 65.3 °F 47.5 °F 52% 30.22 in 10.0 mi Calm Calm - N/A   Clear
10:35 AM 66.4 °F 48.0 °F 52% 30.23 in 10.0 mi Calm Calm - N/A   Clear
10:55 AM 68.4 °F 47.3 °F 47% 30.22 in 10.0 mi Calm Calm - N/A   Clear
11:15 AM 70.2 °F 45.9 °F 42% 30.22 in 10.0 mi North - - N/A   Clear
11:35 AM 70.7 °F 45.3 °F 40% 30.22 in 10.0 mi North - - N/A   Clear
11:55 AM 72.1 °F 45.7 °F 39% 30.21 in 10.0 mi North - - N/A   Clear
12:15 PM 72.3 °F 45.3 °F 38% 30.21 in 10.0 mi North - - N/A   Clear
12:35 PM 72.5 °F 46.0 °F 39% 30.20 in 10.0 mi North - - N/A   Scattered Clouds
12:55 PM 73.2 °F 45.5 °F 37% 30.19 in 10.0 mi North - - N/A   Clear
1:15 PM 73.9 °F 45.5 °F 36% 30.17 in 10.0 mi North - - N/A   Clear
1:35 PM 74.5 °F 45.3 °F 35% 30.16 in 10.0 mi North - - N/A   Clear
1:55 PM 74.7 °F 45.1 °F 35% 30.16 in 10.0 mi Calm Calm - N/A   Clear
2:15 PM 76.1 °F 45.7 °F 34% 30.14 in 10.0 mi Calm Calm - N/A   Clear
2:35 PM 75.9 °F 45.1 °F 33% 30.14 in 10.0 mi NNW 3.5 mph - N/A   Clear
2:55 PM 77.0 °F 45.3 °F 32% 30.13 in 10.0 mi North 4.6 mph - N/A   Clear
3:15 PM 77.9 °F 42.4 °F 28% 30.12 in 10.0 mi Calm Calm - N/A   Clear
3:35 PM 79.0 °F 43.7 °F 29% 30.11 in 10.0 mi South 9.2 mph - N/A   Clear
3:55 PM 79.3 °F 43.3 °F 28% 30.11 in 10.0 mi South 6.9 mph - N/A   Clear
4:15 PM 79.9 °F 44.4 °F 28% 30.10 in 10.0 mi SW 9.2 mph - N/A   Clear
4:35 PM 79.5 °F 44.1 °F 28% 30.09 in 10.0 mi SSW 5.8 mph - N/A   Clear
4:55 PM 79.7 °F 42.6 °F 27% 30.09 in 10.0 mi South 5.8 mph - N/A   Clear
5:15 PM 79.2 °F 44.2 °F 29% 30.09 in 10.0 mi North - - N/A   Clear
5:35 PM 79.2 °F 44.8 °F 30% 30.09 in 10.0 mi North - - N/A   Clear
5:55 PM 79.0 °F 43.9 °F 29% 30.08 in 10.0 mi South 8.1 mph - N/A   Clear
6:15 PM 78.4 °F 45.0 °F 30% 30.09 in 10.0 mi SSW 8.1 mph - N/A   Clear
6:35 PM 73.9 °F 48.0 °F 40% 30.09 in 10.0 mi South 6.9 mph - N/A   Clear
6:55 PM 72.5 °F 49.5 °F 44% 30.08 in 10.0 mi North - - N/A   Clear
7:15 PM 70.5 °F 50.0 °F 48% 30.08 in 10.0 mi North - - N/A   Clear
7:35 PM 69.8 °F 49.8 °F 49% 30.08 in 10.0 mi Calm Calm - N/A   Clear
7:55 PM 70.2 °F 49.3 °F 47% 30.08 in 10.0 mi Calm Calm - N/A   Clear
8:15 PM 66.9 °F 50.0 °F 54% 30.09 in 10.0 mi Calm Calm - N/A   Clear
8:35 PM 65.5 °F 50.4 °F 58% 30.09 in 10.0 mi North - - N/A   Clear
8:55 PM 65.3 °F 51.6 °F 61% 30.09 in 10.0 mi Calm Calm - N/A   Clear
9:15 PM 64.0 °F 52.3 °F 66% 30.10 in 10.0 mi North - - N/A   Clear
9:35 PM 61.3 °F 52.9 °F 74% 30.11 in 10.0 mi Calm Calm - N/A   Clear
9:55 PM 62.4 °F 52.2 °F 69% 30.11 in 10.0 mi Calm Calm - N/A   Clear
10:15 PM 61.2 °F 51.8 °F 71% 30.12 in 10.0 mi Calm Calm - N/A   Clear
10:35 PM 61.2 °F 50.9 °F 69% 30.12 in 10.0 mi Calm Calm - N/A   Clear
10:55 PM 60.8 °F 50.2 °F 68% 30.12 in 10.0 mi Calm Calm - N/A   Clear
11:15 PM 60.8 °F 49.6 °F 67% 30.13 in 10.0 mi North - - N/A   Clear
11:35 PM 59.5 °F 50.9 °F 73% 30.13 in 10.0 mi Calm Calm - N/A   Clear
11:55 PM 59.9 °F 50.2 °F 70% 30.12 in 10.0 mi Calm Calm - N/A   Clear